星链-5044 (STARLINK-5044 )

导读

STARLINK-5044是美国SpaceX公司星链计划中的一颗卫星,于2022年9月24日发射升空,属于星链低轨互联网星座的组网卫星之一。它部署在近地轨道,主要为全球范围提供高速低延迟的互联网接入服务,进一步扩充了星链星座的覆盖能力与服务规模。

Basic Information
目录编号:
53898
目录名称:
STARLINK-5044
国际标识:
2022-119N
轨道中心:
EARTH
卫星名称:
星链-5044
卫星全名:
星链-5044 (STARLINK-5044 )
卫星状态:
在轨 (已飞行1364 天)
发射日期:
2022-09-24 UTC
国别 :
美国 (US)
星等 :
--
Orbit Information
数据来源 国际轨道数据 AOE轨道数据
星历时间 2026-06-19T04:55:40+0800
11小时前
查看轨道信息
2026-06-19T04:00:00+0800
12小时前
查看轨道信息
半长轴 6917.919km 6917.904km
偏心率 0.0001198 0.0001156
轨道倾角 53.159° 53.157°
近地点辐角 83.592° 80.157°
升交点赤经 229.508° 229.680°
平近点角 276.521° 69.906°
近地点 538.953km 538.967km
远地点 540.611km 540.567km
周期 95.438分钟 95.438分钟
每日圈数 15.088276 15.088323
Detailed Information
固有亮度:
5
最大亮度:
2.5
卫星平台:
Starlink v1.5
覆盖范围:
全球
运营商:
太空探索技术公司
运营商所在国:
美国
制造商(研发单位):
太空探索技术公司
制造商所在国:
美国
使用方式:
暂无
Satellite Introduction
星链(Starlink)计划是由太空探索技术公司(SpaceX)提出的一个巨型低轨卫星互联网星座项目,计划在2019年至2024年间在太空搭建由约1.2万颗卫星组成的“星链”网络,其中1584颗将部署在地球上空550千米处的近地轨道,并从2020年开始工作。该卫星仍在工作。
2D Orbit Map
3D Orbit Map
Orbit Altitude Analysis Chart
Orbit Inclination Analysis Chart
Orbit Comprehensive Analysis Chart
View Comprehensive Chart